2020 TR2
ephemeris date magn radius delta ra dec elong phase
Today4 Sep 202631.04.153 AU4.100 AU16h18m-24°41'86.0°14.0°
2020 TR2 - 2026-09-04
astro.vanbuitenen.nl


 
-1 year
-1 month
-1 day
Now
+1 day
+1 month
+1 year

The interactive orbit chart above shows the body's path through the solar system and its position at the given date. Green and blue lines are shown perpendicular to the ecliptic plane: Green if the path is above the ecliptic plane, blue if it is below. (Left-click and drag to rotate the view; Right-click and drag to move the view; Use scroll wheel to zoom in our out.)

The orbital elements of 2020 TR2 are:

            e (Eccentricity)                : 0.6652226
            a (Semimajor axis)              : 2.5304640
            i (Inclination)                 : 5.59997
            Ω (Longitude of ascending node) : 46.40785
            ω (Argument of perihelion)      : 41.83761
            M (Mean anomaly)                : 133.20790
            Epoch                           : 2026 Jun 09

            L (Longitude of perihelion)     : 88.10928
            B (Latitude of perihelion)      : 3.73200
            P (Orbital period in years)     : 4.03            
        

The light curve chart below shows the estimated development of the minor planet's magnitude.


The all-sky chart below shows the path of the minor planet over the same period as the light curve. The current position is marked yellow.





The following chart shows the path of the minor planet in the next few days. The field of view is optimized for (~10x50) binoculars and finderscopes.




Ephemerides:
Date       Time       RA (2000)    DEC (2000)    delta   radius  elong  phase   PA    magn
2026-09-04 00:00 UT   16 18 55.8   -24 41 60     4.100    4.153   86.0   14.0   100   31.0 
2026-09-04 15:58 UT   16 19 11.8   -24 42 20     4.111    4.154   85.4   14.0   100   31.0 
2026-09-05 00:00 UT   16 19 20.0   -24 42 31     4.117    4.155   85.1   14.0   100   31.0 
2026-09-06 00:00 UT   16 19 45.1   -24 43 05     4.133    4.156   84.3   14.0   100   31.0 
2026-09-07 00:00 UT   16 20 11.0   -24 43 40     4.150    4.157   83.4   13.9   100   31.0 
2026-09-08 00:00 UT   16 20 37.7   -24 44 17     4.167    4.158   82.5   13.9   100   31.0 
2026-09-09 00:00 UT   16 21 05.2   -24 44 56     4.184    4.159   81.7   13.9   100   31.0 
2026-09-10 00:00 UT   16 21 33.5   -24 45 37     4.201    4.160   80.8   13.8   100   31.0 
2026-09-11 00:00 UT   16 22 02.6   -24 46 20     4.217    4.161   79.9   13.8   100   31.0 
2026-09-12 00:00 UT   16 22 32.5   -24 47 04     4.234    4.162   79.1   13.7   100   31.0 
2026-09-13 00:00 UT   16 23 03.1   -24 47 51     4.250    4.164   78.2   13.7   100   31.0 
2026-09-14 00:00 UT   16 23 34.5   -24 48 38     4.267    4.165   77.4   13.6   100   31.0 
2026-09-15 00:00 UT   16 24 06.7   -24 49 28     4.283    4.166   76.5   13.6   100   31.0 
2026-09-16 00:00 UT   16 24 39.6   -24 50 19     4.300    4.167   75.7   13.5   100   31.0 
2026-09-17 00:00 UT   16 25 13.2   -24 51 11     4.316    4.168   74.8   13.5   100   31.1 
2026-09-18 00:00 UT   16 25 47.6   -24 52 05     4.332    4.169   74.0   13.4   100   31.1 
2026-09-19 00:00 UT   16 26 22.6   -24 53 00     4.348    4.170   73.2   13.3   100   31.1 
2026-09-20 00:00 UT   16 26 58.3   -24 53 57     4.364    4.171   72.3   13.3   100   31.1 
2026-09-21 00:00 UT   16 27 34.8   -24 54 55     4.380    4.172   71.5   13.2   100   31.1 
2026-09-22 00:00 UT   16 28 11.9   -24 55 54     4.396    4.173   70.6   13.1   100   31.1 
2026-09-23 00:00 UT   16 28 49.6   -24 56 54     4.412    4.174   69.8   13.0   100   31.1 
2026-09-24 00:00 UT   16 29 28.0   -24 57 56     4.428    4.174   69.0   13.0   100   31.1 
2026-09-25 00:00 UT   16 30 07.1   -24 58 58     4.444    4.175   68.1   12.9   100   31.1 
2026-09-26 00:00 UT   16 30 46.8   -25 00 02     4.459    4.176   67.3   12.8   100   31.1 
2026-09-27 00:00 UT   16 31 27.1   -25 01 07     4.475    4.177   66.5   12.7   100   31.1 
2026-09-28 00:00 UT   16 32 08.1   -25 02 12     4.490    4.178   65.7   12.6   100   31.1 
2026-09-29 00:00 UT   16 32 49.6   -25 03 19     4.505    4.179   64.9   12.5   100   31.1 
2026-09-30 00:00 UT   16 33 31.7   -25 04 27     4.520    4.180   64.0   12.4   100   31.1 
2026-10-01 00:00 UT   16 34 14.5   -25 05 35     4.535    4.181   63.2   12.3   100   31.1 
2026-10-02 00:00 UT   16 34 57.8   -25 06 44     4.550    4.182   62.4   12.2   100   31.1 
2026-10-03 00:00 UT   16 35 41.7   -25 07 54     4.565    4.182   61.6   12.1   100   31.1 
2026-10-04 00:00 UT   16 36 26.2   -25 09 05     4.580    4.183   60.8   12.0   100   31.1 


    Terminology:
            
    delta:  distance between minor planet and earth in AU
    radius: distance between minor planet and sun in AU
    magn:   magnitude (brightness) estimate    
    ra:     right ascension in hours (24h = 360deg)
    dec:    declination in degrees
    elong:  elongation in degrees (angle sun-earth-minor planet)    
    phase:  phase angle in degrees (angle sun-minor planet-earth)        
    AU:     Astronomical Unit (mean distance between earth and sun: 149597870.7 km
    

Orbital elements provided by the MPC (Minor Planet Center).
Calculations by a modified version of AAPlus, a C# implementation of the AA+ project by PJ Naughter from the algorithms presented in the book "Astronomical Algorithms" by Jean Meeus.
NGC2000 dso catalog and star labels from VizieR as provided by the Strasbourg astronomical Data Center.
Tycho2 catalog from the ESO archive.